Theta_e
317 316 318 317 315 313 310 311 314 314 316 317 317 318 317 317 319 323 329 331 331 332 330 328 331 333 336 344 347 343 341 338 336 340 344 346 346 345 345 344 344 343 342 342 342 341 340 339 339 339 339 339 339 339 339 339 339 338 338 337 337 336 335 334 333 332 331 331 330 329 327 326 325 324 323 321 319 318 317 316 315 314 313 312 311 310 309
318 318 318 318 317 316 312 312 314 314 315 316 317 318 317 316 320 326 330 329 329 335 332 327 329 331 331 337 343 344 343 342 341 344 345 345 346 345 345 344 344 343 342 341 341 341 340 339 339 339 339 339 340 339 339 339 339 338 337 337 336 336 335 334 333 332 330 330 329 328 327 325 324 323 321 320 318 317 316 315 315 314 313 312 311 310 309
319 319 320 320 320 321 318 313 313 313 314 315 317 318 318 317 319 322 325 325 330 338 334 327 328 330 330 336 340 342 345 344 343 345 345 345 346 345 345 345 343 343 342 341 341 341 340 339 339 339 339 339 339 339 339 339 338 337 337 336 336 335 334 334 333 331 330 329 328 326 325 324 323 322 320 319 318 317 316 315 315 314 313 312 311 310 310
320 320 321 321 321 325 323 317 315 316 316 317 318 318 319 319 319 320 321 322 331 341 338 330 329 329 330 337 340 341 343 343 342 344 345 344 345 345 345 345 344 343 342 341 341 341 340 340 339 339 339 339 339 339 339 339 338 337 336 336 335 334 334 333 332 331 329 328 327 326 325 324 323 321 320 319 318 317 316 315 315 314 313 313 312 311 310
323 321 321 321 321 324 326 321 317 318 318 318 319 319 320 321 321 324 324 323 333 344 340 332 330 329 332 339 341 341 342 343 341 341 343 344 344 344 344 344 344 344 342 341 341 340 339 339 339 339 339 339 339 338 339 338 338 337 336 335 335 334 333 332 331 330 329 327 326 325 324 324 322 321 320 318 317 317 316 315 315 314 313 312 312 311 310
325 322 321 323 323 326 329 324 318 318 318 318 320 321 322 322 322 324 324 328 338 343 338 335 333 330 333 339 339 337 339 344 344 340 340 341 340 341 343 343 343 343 342 341 340 339 339 339 339 339 339 339 339 338 339 338 337 337 336 335 334 334 333 332 330 329 328 327 325 324 324 323 322 320 319 318 317 316 316 315 315 314 313 312 312 311 310
324 324 324 327 328 327 326 323 321 321 318 318 320 321 321 321 321 319 319 327 336 334 331 334 331 328 332 337 338 337 337 341 345 343 342 343 341 339 340 342 342 342 342 342 339 339 339 339 339 339 339 338 339 338 338 338 337 336 335 334 334 333 332 331 330 329 328 327 325 324 323 322 321 320 319 318 317 316 316 315 315 314 313 312 312 311 310
324 325 324 327 327 324 321 323 325 326 324 323 323 323 320 321 323 321 319 322 327 325 326 329 328 327 331 335 338 340 337 338 342 341 339 341 341 339 339 342 343 341 341 341 340 339 339 339 339 339 338 338 338 338 338 337 336 336 335 334 333 332 331 330 329 329 328 326 325 323 322 321 320 320 319 318 317 317 316 315 314 313 312 312 312 311 311
323 325 325 326 325 324 327 328 327 327 328 329 327 325 327 327 325 322 320 321 322 321 322 324 323 324 327 330 336 339 338 338 341 339 335 335 336 338 339 339 339 338 339 339 339 339 339 339 339 338 338 339 338 338 337 336 336 335 334 333 332 331 330 329 329 328 327 326 324 322 322 321 320 319 319 318 317 316 315 315 314 313 312 312 311 311 311
322 323 325 326 325 327 330 328 326 327 328 330 329 325 326 329 328 324 321 321 323 323 323 323 322 321 321 324 333 340 339 337 340 342 339 334 334 337 339 338 336 337 339 339 339 339 339 338 338 338 338 338 337 337 336 335 335 334 333 332 331 330 329 329 328 327 326 325 323 322 321 321 320 319 319 318 317 316 315 315 313 312 312 312 311 311 311
322 323 325 326 324 326 328 327 327 328 328 330 329 323 323 328 329 329 327 324 324 325 323 322 323 322 318 324 339 345 339 338 344 347 346 340 335 335 335 336 337 338 339 339 338 339 338 337 338 338 337 338 337 336 335 335 334 333 332 331 330 329 329 328 327 327 326 324 323 322 321 321 320 319 319 318 317 316 315 314 313 312 312 312 311 311 311
323 324 325 324 323 326 329 328 327 328 328 328 325 326 331 331 329 331 332 330 328 324 321 322 324 320 319 332 350 349 340 343 348 347 347 346 342 338 335 335 338 338 339 339 338 338 338 337 337 337 337 337 336 334 335 334 333 333 332 331 330 329 328 327 326 326 325 323 322 322 321 320 319 319 319 318 316 315 314 314 313 312 312 312 312 311 311
323 323 324 324 324 328 331 330 327 328 328 326 325 331 335 332 329 331 333 334 332 327 322 322 323 323 327 342 354 348 340 344 345 341 341 340 339 339 337 335 338 339 338 338 338 337 337 337 337 337 336 336 335 334 334 333 333 332 331 330 329 328 327 326 325 324 324 322 322 321 321 320 319 319 318 317 316 315 314 313 313 312 312 312 311 311 311
322 322 324 325 324 325 329 329 327 328 331 330 329 332 332 330 331 332 332 335 333 330 328 325 326 334 343 347 350 346 342 345 345 341 339 336 335 338 338 337 339 339 337 338 338 337 337 337 337 337 336 334 333 333 333 333 332 332 331 330 329 327 326 326 325 324 323 322 322 321 320 320 319 319 318 317 315 314 314 313 313 312 311 311 310 310 310
322 322 324 325 323 324 327 329 328 331 335 334 330 328 328 328 331 333 333 335 332 332 337 336 334 342 348 346 346 347 345 345 345 340 337 336 338 339 338 338 338 338 337 337 337 336 336 336 336 336 335 333 332 332 332 332 332 331 330 329 328 327 326 325 324 324 323 322 321 321 320 320 319 318 317 316 315 314 314 313 312 311 310 310 309 309 309
322 323 324 324 324 324 326 328 328 330 331 330 327 327 327 326 327 331 334 335 331 331 338 341 339 341 345 344 347 350 347 344 344 341 337 337 338 339 338 337 337 337 337 336 336 336 336 335 336 335 334 332 331 331 332 331 331 331 330 329 328 327 325 324 323 323 323 322 321 321 320 320 319 318 316 315 314 313 313 312 311 309 309 309 308 308 308
323 324 323 322 323 325 325 325 327 328 328 327 326 327 327 325 325 328 332 334 332 330 336 343 341 336 335 337 341 345 346 344 343 341 338 336 337 338 338 337 337 337 336 335 335 335 335 335 335 334 333 332 331 331 331 331 331 330 329 328 327 325 324 323 323 322 322 321 321 320 319 319 318 317 315 314 313 312 311 310 309 308 307 307 307 307 307
324 323 322 322 324 325 324 324 326 327 327 328 327 328 329 328 325 326 330 333 332 330 335 342 339 331 328 329 330 332 336 338 338 339 338 336 337 337 336 336 337 336 335 335 335 334 334 334 334 333 332 331 330 330 331 331 331 330 329 328 327 324 323 323 322 321 321 320 319 319 318 318 317 316 315 314 312 310 310 309 309 307 307 306 306 306 306
323 323 323 324 325 326 326 325 325 324 325 328 329 330 331 331 327 325 328 332 331 329 331 335 333 328 328 329 329 329 330 330 330 333 336 337 337 337 336 335 336 336 335 334 333 333 333 333 333 332 332 331 331 331 331 330 330 330 328 327 326 323 322 321 321 320 319 319 318 317 316 316 315 314 313 312 311 309 308 308 307 306 306 305 305 305 304
325 326 326 325 324 326 326 326 326 325 324 327 330 331 331 330 327 325 328 331 332 331 330 330 330 328 327 329 330 329 330 330 327 328 332 335 334 335 334 333 334 335 335 333 333 332 332 332 332 332 331 331 331 331 330 330 330 329 327 326 324 322 321 320 319 319 318 318 317 316 315 315 314 313 312 311 310 309 309 308 307 306 305 304 304 304 304
326 327 325 324 325 327 327 326 326 326 324 325 328 330 329 327 326 326 330 333 334 333 331 329 327 327 327 329 329 328 329 331 330 327 328 330 330 331 332 332 334 335 334 333 333 332 332 332 332 332 331 331 331 330 329 329 328 326 324 323 322 320 319 318 317 317 317 316 316 315 314 314 313 313 312 312 311 310 309 309 309 308 306 305 305 304 304
326 328 327 326 328 329 329 326 325 324 325 324 324 327 328 327 327 329 332 333 332 332 331 327 326 328 327 327 328 327 328 330 331 329 327 327 327 327 328 331 334 334 333 333 333 332 332 332 332 332 331 331 331 329 328 327 325 323 321 320 319 318 317 316 315 315 315 315 314 313 313 312 311 311 311 311 310 309 308 308 308 308 308 308 307 306 304
323 325 327 328 329 328 327 326 325 324 324 324 324 325 327 328 329 332 333 332 330 331 330 328 327 328 327 326 327 328 327 327 329 328 327 326 327 327 326 328 332 333 333 333 332 332 332 332 331 331 330 329 329 328 326 325 324 322 320 319 318 317 316 315 314 314 313 313 312 312 311 311 310 310 309 309 309 309 308 308 308 308 307 308 308 306 305
320 322 326 328 329 327 326 326 326 324 322 323 324 326 327 327 328 330 331 330 329 330 330 329 327 327 326 326 327 327 327 328 327 326 325 326 326 327 327 328 329 331 331 332 331 331 331 331 331 330 329 327 326 326 325 324 323 322 320 319 318 316 316 315 314 313 313 312 311 311 310 310 309 309 308 307 307 308 308 308 308 307 306 306 306 305 305
321 325 328 327 326 326 325 326 327 326 323 322 324 326 327 328 327 328 329 329 330 330 331 331 328 326 326 326 327 328 329 329 326 325 326 326 325 326 328 328 328 329 329 330 331 331 331 331 330 329 328 326 324 324 324 324 322 321 320 319 317 316 315 314 313 313 312 311 311 311 310 310 309 309 308 307 306 306 307 307 307 307 306 306 306 305 304
323 327 327 325 325 326 326 328 330 330 326 324 325 328 329 329 329 328 328 328 330 330 331 332 331 327 325 326 328 329 329 328 326 325 326 325 324 325 327 327 327 327 328 330 331 331 330 330 329 328 327 325 324 324 324 323 322 320 319 318 317 316 315 314 313 312 312 311 311 311 310 310 309 308 308 308 306 305 305 305 305 305 305 306 305 305 304
325 328 327 327 329 329 327 327 330 329 327 326 327 328 327 326 326 325 325 326 326 326 326 327 328 327 326 326 325 325 326 326 326 325 325 324 324 325 326 327 326 326 328 329 329 329 329 329 327 325 324 324 324 324 324 322 321 320 319 318 317 316 315 314 313 312 312 311 311 311 310 310 309 308 308 307 306 305 305 305 304 304 304 305 304 303 303
325 329 328 328 330 329 327 326 327 328 327 327 327 326 325 324 325 326 327 327 327 326 325 324 325 328 329 327 326 326 326 327 328 328 326 325 325 326 326 326 326 326 327 328 328 328 328 327 325 323 323 323 324 324 323 322 321 320 319 318 317 316 315 314 313 312 312 312 311 311 310 310 310 309 309 308 307 306 305 305 304 303 303 303 302 301 301
329 330 327 327 327 327 326 327 328 328 328 328 327 325 324 324 325 327 328 328 328 329 329 326 325 326 327 326 326 327 329 330 331 330 328 328 328 327 325 325 325 326 327 328 327 327 327 325 324 323 323 322 323 323 322 321 320 319 319 318 316 315 314 313 313 313 312 312 312 312 311 311 311 310 310 309 307 307 305 304 303 302 302 301 300 300 300
332 330 327 326 327 326 326 327 328 328 327 327 326 324 323 324 326 327 328 328 329 329 330 329 328 327 326 326 326 327 328 329 329 328 329 330 329 328 326 325 324 325 325 326 326 326 325 324 323 323 323 322 322 322 321 321 320 319 318 317 316 315 314 313 313 313 312 312 312 312 311 311 311 310 309 308 307 306 305 304 303 302 301 301 300 300 300
326 328 328 328 327 327 326 326 326 326 325 326 326 325 325 327 329 328 327 329 330 329 329 330 332 330 326 325 325 326 326 327 328 328 328 329 329 328 327 326 325 324 324 324 325 324 324 323 323 323 322 322 322 321 321 321 320 318 317 316 316 315 314 313 313 312 312 312 311 311 311 310 310 310 309 308 307 306 305 304 303 302 301 301 300 300 300
321 323 328 329 329 327 327 326 326 325 325 325 327 326 326 328 329 327 326 328 329 329 330 331 329 327 324 322 323 325 326 326 327 327 328 328 328 328 327 327 325 324 324 324 324 324 323 323 322 322 322 323 322 322 322 321 319 318 317 316 315 314 313 313 313 312 312 312 311 311 310 310 309 309 308 308 307 306 305 304 303 303 302 301 301 301 300
321 321 325 328 327 326 326 327 326 326 325 325 327 327 326 327 328 326 325 325 326 327 328 326 323 321 322 322 323 324 325 325 326 326 326 327 327 327 327 326 326 325 324 324 324 323 323 322 322 322 322 322 322 322 322 321 320 318 317 316 315 314 314 313 313 313 312 312 311 310 310 309 309 308 308 308 307 306 305 305 304 303 302 302 302 302 301
322 324 325 326 325 327 329 329 327 325 325 326 327 328 326 325 325 323 322 323 324 323 321 319 318 318 321 322 321 321 324 328 330 327 325 325 326 327 327 326 325 325 324 324 323 323 323 322 322 322 323 322 322 322 322 322 320 319 317 316 315 314 314 313 313 313 312 312 311 310 310 309 309 308 308 307 307 306 306 305 305 304 304 303 303 303 303
324 325 324 324 326 328 330 328 326 325 325 324 325 326 323 321 321 321 319 319 320 318 316 315 316 316 318 318 318 318 321 324 326 324 323 323 325 326 326 326 325 324 325 324 324 324 323 322 322 322 322 322 322 322 322 322 321 319 318 317 315 314 314 313 313 312 312 312 311 310 309 309 309 308 308 307 307 307 306 306 306 306 305 304 304 304 304
322 324 323 324 325 327 327 326 325 324 324 324 325 324 321 319 319 319 317 316 316 315 314 314 315 315 315 315 316 317 318 319 320 321 323 323 324 325 325 325 324 324 324 323 323 324 324 323 323 322 322 321 321 322 322 321 320 318 317 317 315 314 314 313 312 312 312 311 310 309 309 309 308 308 308 307 307 307 306 306 306 306 305 305 304 304 304
319 323 325 325 326 327 327 324 322 321 321 322 323 322 320 318 317 315 315 314 314 314 314 314 314 314 315 315 316 317 318 319 320 321 322 323 323 323 323 323 322 322 322 322 322 323 323 323 323 323 322 322 321 322 322 321 320 318 317 316 315 314 313 313 312 311 311 310 310 310 309 309 309 308 308 308 307 307 306 306 306 306 305 305 305 305 305
316 319 321 320 322 324 323 320 317 317 318 320 320 319 317 316 315 313 313 314 313 313 313 313 313 314 315 315 316 317 318 319 320 321 322 322 321 319 318 318 319 320 320 320 320 321 321 320 321 321 321 321 320 319 320 320 319 318 317 316 315 314 313 313 312 312 311 311 310 310 310 309 309 309 308 308 307 307 306 306 306 305 305 305 305 305 305
315 317 318 317 317 318 318 317 316 316 317 319 320 318 315 314 313 313 313 313 312 312 313 312 312 313 314 315 315 316 316 316 318 320 321 321 319 316 314 315 317 319 319 320 320 320 320 320 320 320 320 320 319 318 317 318 318 317 316 315 315 314 313 313 312 312 311 311 311 310 310 310 309 309 308 308 307 307 307 306 306 306 305 305 305 304 304
316 317 318 318 316 316 317 317 316 315 315 317 317 316 314 314 314 313 313 312 312 312 311 312 312 312 312 312 313 313 314 314 315 317 319 319 317 315 314 314 315 317 318 319 319 320 320 320 320 320 320 320 319 318 317 317 316 315 315 314 313 313 313 313 312 312 311 311 311 310 310 310 309 309 309 308 308 308 307 306 306 306 305 305 304 304 304
316 316 317 318 317 316 316 316 315 315 315 315 315 314 313 313 313 312 312 312 312 311 311 311 311 311 311 311 312 312 313 314 315 318 319 318 314 313 314 314 313 314 316 317 317 318 319 318 318 318 318 319 319 319 318 317 316 315 314 314 313 313 313 313 312 312 311 311 310 310 310 309 309 309 308 308 308 307 307 306 306 305 305 305 304 304 304
317 317 318 319 318 316 314 314 315 316 315 314 313 312 312 311 311 311 311 311 311 310 310 310 310 311 311 311 311 311 312 313 315 317 318 316 313 313 314 313 312 313 315 315 315 316 317 317 317 318 317 317 318 318 318 318 317 316 315 315 314 313 313 312 312 312 312 311 311 310 310 309 309 309 308 308 308 307 307 306 305 305 305 305 304 304 304
315 315 317 318 318 315 313 313 315 315 314 313 313 312 311 310 310 310 310 310 310 310 310 310 310 310 311 311 311 311 312 313 315 315 314 313 313 312 312 312 312 313 314 315 314 315 315 316 316 317 317 317 316 316 316 316 316 316 315 315 315 314 313 313 312 312 312 311 311 310 310 310 310 309 309 309 308 307 307 306 305 306 305 305 304 304 304
313 314 315 316 316 315 314 314 314 313 313 312 312 311 310 309 309 309 309 309 310 310 311 311 311 311 311 312 312 311 311 313 313 312 311 311 311 310 310 311 312 312 313 313 313 314 314 315 315 315 315 314 314 314 315 315 315 315 315 314 314 314 313 313 312 312 312 311 311 311 310 310 310 310 309 308 308 307 307 306 306 306 305 305 305 304 304
313 313 314 315 315 314 314 314 312 311 310 310 310 309 310 309 309 308 308 309 310 310 310 311 311 311 311 312 312 311 312 313 313 312 312 312 311 310 310 310 311 311 311 312 312 312 312 313 313 313 313 313 313 314 314 314 314 314 314 313 313 313 313 312 312 312 312 311 311 311 310 310 309 309 309 308 307 307 306 306 306 306 305 305 305 305 304
312 313 312 313 313 313 313 312 310 309 309 309 309 309 309 309 309 309 309 309 310 311 310 310 310 310 310 310 311 311 311 311 312 312 312 311 310 309 309 310 310 310 310 310 310 310 310 311 311 312 312 312 313 313 313 313 312 312 312 312 312 312 312 311 311 311 311 311 310 310 310 309 308 308 308 307 307 307 306 306 306 305 305 305 305 304 304
312 312 311 311 311 311 310 309 309 309 310 311 311 310 309 309 310 310 309 310 310 310 309 308 308 308 308 308 309 309 309 308 309 309 309 309 309 309 309 309 309 309 308 308 308 308 308 309 309 310 311 311 312 312 312 312 311 311 312 312 311 311 311 311 310 310 311 310 310 309 309 308 308 308 308 307 307 307 306 306 306 305 305 305 305 305 304
312 311 311 311 311 310 309 309 310 311 311 311 311 310 309 309 309 309 309 310 310 309 307 306 306 307 307 307 308 309 309 308 308 309 308 308 307 307 308 308 308 308 307 307 307 307 307 308 308 309 310 310 311 311 311 311 311 311 311 311 311 311 311 310 310 310 310 309 309 308 308 308 308 308 308 307 307 307 306 306 305 306 305 305 305 305 304
312 310 310 310 310 309 308 309 310 311 311 310 309 309 309 309 309 309 309 309 308 307 306 306 306 306 306 306 307 308 309 309 309 309 308 307 307 307 308 308 308 307 306 306 306 307 307 308 308 309 309 309 310 309 309 310 310 310 310 310 310 310 310 310 309 309 309 308 308 307 307 307 307 307 307 307 307 307 306 306 305 305 305 305 304 304 304
310 309 309 309 308 308 308 309 310 310 310 309 309 310 309 308 308 308 308 307 307 306 306 305 305 306 306 306 306 307 307 307 307 308 308 307 307 308 308 309 308 307 307 307 307 307 307 308 308 309 309 309 309 309 309 309 309 309 309 309 309 309 308 308 308 308 308 307 307 307 307 306 306 306 306 307 307 306 306 305 305 305 305 304 304 304 304
308 307 308 309 309 309 309 310 309 309 309 309 309 309 309 308 308 308 308 308 307 307 306 305 304 305 304 304 304 304 304 304 305 306 307 307 307 308 308 308 308 307 307 307 308 308 308 308 308 308 308 308 308 308 308 308 308 308 308 308 308 308 307 307 307 308 307 307 307 307 307 306 306 306 306 306 306 306 306 305 305 305 305 304 304 304 303
305 305 306 308 308 307 308 308 307 308 309 309 309 309 309 308 308 308 308 308 308 307 305 304 304 304 304 304 305 305 305 305 304 305 305 306 306 307 307 307 307 308 308 308 307 307 307 308 308 308 308 307 307 307 308 308 307 307 307 307 307 307 307 307 307 307 307 307 307 307 307 306 306 306 306 306 306 305 305 305 305 305 304 304 304 303 303
Wind_Speed
11 9 6 8 12 11 10 11 10 9 9 12 10 6 7 9 8 6 3 4 6 8 12 12 11 13 11 3 4 3 7 9 12 17 20 20 19 20 20 19 19 19 18 18 16 16 18 22 24 26 26 27 28 28 29 30 31 32 33 34 34 34 34 33 33 33 33 34 34 33 31 31 31 31 31 32 32 31 31 30 29 27 27 26 26 25 24
13 9 4 5 7 7 9 11 9 10 12 13 10 6 9 13 10 4 3 3 9 7 8 12 12 13 14 7 6 6 7 8 11 17 21 21 21 21 20 20 19 18 18 18 17 17 18 21 24 25 26 28 29 29 29 29 30 32 34 35 34 34 33 32 33 33 33 34 34 34 33 32 31 32 32 32 32 32 31 30 29 27 26 26 26 26 25
10 8 7 9 9 7 7 9 10 12 13 12 9 7 11 13 8 5 5 6 9 6 4 10 12 13 15 7 7 7 7 9 10 14 17 19 20 20 19 19 19 18 18 17 17 17 18 22 26 26 27 28 29 29 29 29 30 32 34 34 33 33 32 32 32 33 33 33 34 34 33 32 32 33 33 32 32 31 31 29 28 27 27 26 26 25 25
6 6 9 11 9 6 8 9 10 12 11 9 9 9 10 8 4 7 10 6 5 5 4 8 10 11 12 6 6 6 6 9 9 11 15 16 17 17 16 16 15 16 17 17 17 18 19 24 26 26 27 28 29 29 29 29 30 32 33 33 33 32 32 32 32 33 33 33 33 33 33 33 33 33 32 31 31 31 30 29 28 27 26 26 26 25 25
3 5 8 9 7 3 6 8 9 10 9 8 9 9 9 7 6 8 8 4 4 5 3 5 9 10 9 4 4 1 4 9 7 7 10 13 16 17 17 17 16 16 15 16 17 18 21 25 27 28 29 29 29 29 29 29 30 32 32 33 32 31 32 33 33 32 33 33 32 32 33 34 34 33 31 31 32 31 30 29 28 27 26 26 26 25 25
3 7 8 5 2 2 5 5 6 10 12 10 10 8 8 10 7 5 4 4 4 3 3 4 9 12 9 3 2 4 6 10 7 6 8 9 12 16 18 18 17 16 15 14 17 21 24 27 29 29 29 29 29 29 29 30 30 31 32 32 31 31 32 34 34 33 33 33 32 33 34 34 34 33 31 31 31 30 30 29 29 27 26 26 26 24 24
3 6 6 4 1 4 7 8 6 7 9 9 8 7 8 10 8 6 5 6 6 5 7 9 9 12 12 7 5 4 7 11 9 8 8 7 5 9 14 16 16 16 15 14 16 22 26 29 30 29 29 30 30 29 30 31 30 30 31 31 30 31 33 34 35 34 33 33 32 32 33 33 33 32 31 31 31 30 30 30 30 28 26 26 27 24 23
2 4 4 1 4 8 11 11 7 5 4 4 6 7 9 9 7 8 7 8 8 7 9 9 10 11 10 7 6 6 5 8 9 9 10 10 8 10 10 12 13 15 17 19 20 23 27 30 30 30 30 32 31 29 30 31 31 30 30 29 30 31 33 34 36 35 34 33 32 31 32 32 32 32 31 31 31 30 30 30 30 28 26 26 27 25 24
0 1 3 3 5 9 9 5 3 3 2 4 5 5 8 7 5 6 7 8 9 9 9 9 8 5 4 4 6 7 5 5 8 9 11 15 16 15 12 12 15 19 24 26 26 28 29 30 30 29 31 32 31 28 29 30 31 30 30 29 30 31 32 33 35 35 35 34 32 31 32 31 32 32 31 31 31 30 30 30 29 28 26 26 26 27 26
1 1 3 3 3 5 5 5 7 4 3 7 7 4 4 5 4 3 2 6 9 9 8 10 7 3 4 4 5 6 6 5 7 8 10 13 15 15 14 14 14 19 25 27 29 31 30 30 30 30 31 32 30 28 28 28 29 29 29 28 30 32 32 33 34 34 35 35 33 31 31 31 31 31 31 31 31 30 30 30 29 29 28 27 27 28 27
1 1 2 2 2 4 6 8 11 9 9 11 7 1 3 5 9 10 7 4 6 7 7 8 7 4 4 5 5 5 2 3 4 6 9 11 12 15 19 20 17 20 26 29 30 32 30 29 31 32 32 32 29 26 27 27 27 27 28 29 31 33 33 33 34 33 34 35 33 32 32 31 31 31 30 30 30 30 30 30 29 28 28 28 27 27 28
2 2 1 2 3 5 7 9 11 13 13 10 5 0 5 7 10 10 8 8 8 7 8 7 6 5 6 5 5 6 3 5 5 5 6 8 9 10 16 23 24 26 30 29 27 28 29 30 32 33 32 31 28 26 26 27 26 26 28 30 31 33 33 34 34 34 33 32 32 32 32 31 30 31 30 29 29 29 29 29 29 29 29 29 28 27 28
3 2 2 3 3 4 6 7 10 13 10 6 2 4 6 6 9 9 8 8 10 7 6 8 6 6 7 7 6 6 5 4 3 4 5 8 11 10 12 20 26 27 28 29 28 28 30 32 33 32 30 28 26 26 26 25 24 26 29 31 32 32 33 33 33 33 32 32 32 32 32 32 30 30 30 30 30 30 29 30 30 29 27 27 27 27 27
3 3 3 3 3 4 5 7 8 7 3 0 3 5 5 6 8 9 8 7 8 8 3 5 6 6 6 6 6 7 7 6 6 6 8 9 11 13 15 21 26 26 23 24 26 27 30 33 33 32 30 27 25 26 25 24 24 27 30 32 32 32 32 31 31 31 32 33 32 31 31 31 30 30 29 30 30 31 30 30 29 27 26 26 26 26 25
2 3 3 2 3 4 6 8 6 3 2 2 4 5 8 9 9 9 8 6 6 6 4 5 6 5 6 6 6 7 7 7 7 8 11 11 10 11 13 16 23 25 22 22 25 27 30 33 33 32 30 27 26 26 25 26 28 30 31 32 33 33 31 30 30 31 32 32 31 29 29 30 31 31 30 30 30 31 31 30 29 27 26 26 27 25 23
0 2 2 2 3 6 7 6 4 3 2 3 4 5 6 9 10 9 7 5 7 6 3 7 8 5 2 2 4 7 7 7 7 8 11 13 11 11 13 17 24 26 22 21 24 28 31 32 32 33 32 28 26 26 26 28 31 32 32 33 33 32 31 30 30 31 31 31 31 31 30 31 32 31 30 30 29 29 30 30 29 28 27 27 27 26 24
2 3 4 4 6 8 7 5 4 5 5 5 4 3 4 6 9 10 8 6 7 7 3 6 7 8 9 10 6 0 5 8 10 10 12 13 14 15 17 21 25 26 25 25 25 26 30 32 32 33 34 31 28 26 28 31 33 33 33 33 31 30 30 31 31 31 31 31 31 32 32 33 33 32 31 30 29 29 29 30 29 28 26 26 27 26 25
3 4 7 7 6 6 6 7 7 8 6 5 4 4 4 6 9 10 9 7 7 6 4 5 5 5 7 11 12 11 7 2 3 7 11 13 14 16 18 21 25 26 26 26 25 24 26 30 31 31 32 33 30 28 29 32 33 33 33 31 30 30 30 32 33 32 31 30 30 31 32 32 33 33 33 33 31 29 29 29 28 27 26 25 25 25 25
2 3 7 6 5 5 4 5 9 11 9 6 3 3 4 5 9 12 11 7 5 4 5 5 4 4 7 10 11 11 11 11 11 6 4 9 11 14 17 20 24 26 24 21 21 22 22 26 29 30 29 31 31 29 29 31 31 32 32 30 30 30 30 31 32 31 31 30 29 30 30 30 30 31 31 32 31 30 29 28 26 25 25 25 25 25 25
3 3 5 6 6 6 4 1 4 10 11 8 6 3 3 3 9 13 10 4 3 4 6 5 5 6 8 9 9 7 7 10 13 12 7 4 2 10 18 21 23 24 22 19 19 19 20 22 26 29 28 28 29 29 30 31 32 33 32 31 31 30 30 30 30 30 31 31 30 29 29 29 30 30 30 31 31 30 31 31 29 27 26 27 27 27 26
4 3 5 6 5 5 3 1 2 7 9 9 8 4 1 4 11 10 6 6 5 6 7 6 7 9 8 8 10 8 6 8 10 11 11 11 9 6 4 14 22 22 20 22 21 18 19 22 23 25 26 26 26 28 30 31 33 33 32 31 31 30 29 28 28 28 29 30 30 29 29 29 29 30 31 32 32 30 30 31 31 30 30 30 30 29 29
4 3 4 3 2 4 6 4 5 8 8 9 9 5 4 6 9 8 8 7 6 8 7 6 7 8 7 8 11 9 7 8 9 8 11 10 10 14 14 2 16 23 19 21 23 19 19 22 21 22 23 23 24 26 28 29 31 32 31 29 28 27 26 26 26 27 28 28 28 28 28 27 26 25 26 27 27 26 26 27 29 29 28 28 28 28 29
8 7 6 3 2 4 6 5 6 6 5 7 11 7 3 4 6 7 8 7 7 7 7 6 7 8 7 7 10 10 8 7 7 9 11 10 8 8 15 12 5 19 21 21 22 20 20 23 23 22 23 23 23 27 29 29 30 32 31 29 26 25 25 25 27 27 27 27 26 25 25 25 24 23 22 21 21 22 23 24 25 25 25 24 24 25 26
10 10 6 4 4 5 6 6 6 4 4 7 12 8 7 7 6 6 6 8 8 6 6 6 6 7 6 3 7 10 8 5 6 10 14 10 10 7 15 14 5 12 20 22 22 22 23 25 25 25 25 25 26 28 30 32 32 31 31 29 27 24 24 25 26 26 26 25 25 24 23 23 24 24 22 20 19 19 20 22 23 23 23 23 23 23 23
8 7 5 4 4 5 6 5 5 2 2 6 11 9 7 8 6 5 5 7 7 6 7 6 4 6 5 4 6 9 6 6 9 10 12 11 9 10 16 15 5 4 14 21 24 26 25 24 25 26 26 26 27 30 31 32 32 30 29 27 26 24 24 25 26 25 25 25 25 24 24 24 25 25 24 23 21 20 19 21 23 23 22 22 22 22 22
7 5 3 3 3 5 5 4 4 2 2 6 8 7 7 8 8 7 6 6 6 6 6 5 3 4 3 3 8 10 8 9 12 10 9 11 9 10 13 13 5 1 9 18 23 26 26 25 25 26 25 26 28 30 30 29 29 28 27 26 26 26 26 27 27 26 25 25 25 25 24 24 25 26 25 25 23 21 20 21 22 22 22 22 21 21 21
4 6 2 3 4 5 4 3 4 5 5 5 6 6 7 7 7 7 6 7 8 8 8 8 6 5 4 6 9 10 10 10 9 7 7 9 7 8 11 9 2 7 10 17 23 27 29 28 27 27 27 27 29 28 26 27 27 26 26 25 25 26 26 27 26 25 24 24 24 24 24 23 23 24 24 22 21 20 20 22 22 22 22 22 21 20 21
4 6 4 2 4 5 4 4 4 5 6 6 7 5 4 4 5 6 6 7 7 7 8 10 10 7 6 7 8 7 8 8 6 5 5 7 8 11 12 8 3 7 14 20 25 28 29 27 26 27 28 29 31 29 27 28 28 27 26 26 26 26 26 25 25 25 24 23 23 23 23 22 21 21 22 22 21 21 21 21 22 21 21 21 20 19 19
5 5 4 3 5 5 4 4 4 5 5 6 7 6 2 0 2 5 5 5 6 6 7 8 10 10 10 8 7 6 6 6 6 6 8 11 14 17 17 13 9 13 20 23 24 27 28 26 26 26 27 29 30 29 29 30 29 28 27 27 27 28 28 27 27 28 27 26 24 24 23 22 21 20 20 21 22 22 21 20 20 20 20 21 21 20 19
5 5 3 3 4 4 3 4 5 5 5 5 6 8 5 2 3 3 5 4 5 6 5 6 7 9 9 9 8 8 9 9 9 10 12 14 17 20 21 19 14 13 16 19 21 24 27 28 27 27 27 28 29 28 27 28 26 26 25 25 26 28 29 28 27 28 28 27 25 25 25 23 21 20 19 18 19 19 20 21 20 20 20 21 22 23 23
5 6 6 4 4 3 3 5 5 4 5 3 4 6 5 4 6 4 4 5 5 5 5 6 7 7 7 9 10 12 14 14 13 12 12 13 15 16 17 18 15 11 11 15 19 22 24 26 26 26 25 26 27 27 27 26 25 24 23 23 25 27 28 27 25 25 26 27 26 25 25 24 22 21 20 19 18 18 19 21 21 20 21 21 23 25 25
5 6 6 5 4 4 4 4 3 3 3 3 5 4 4 3 6 5 5 4 4 5 6 6 6 5 6 8 10 12 15 16 15 14 13 13 13 13 13 15 17 16 16 18 21 23 24 24 24 23 23 24 25 25 25 25 25 24 23 24 25 25 25 25 25 24 24 26 26 25 25 24 22 22 22 21 20 19 19 20 21 22 21 22 23 25 26
7 5 5 5 5 4 4 2 2 4 3 3 4 3 4 4 4 3 2 2 4 6 6 5 6 7 9 10 11 10 11 12 12 12 13 13 14 15 16 17 17 17 17 17 19 23 25 25 23 21 22 23 23 22 23 25 25 25 24 25 26 26 24 24 25 24 23 23 24 24 24 24 23 23 23 23 22 21 20 20 21 23 22 22 23 25 25
8 7 6 6 5 4 4 3 1 3 3 3 3 3 4 4 2 2 3 4 6 7 7 8 12 14 14 14 14 12 9 7 6 6 8 10 13 16 18 18 18 17 16 15 16 19 21 22 21 20 21 23 23 21 22 24 24 24 25 26 27 27 25 24 24 23 23 23 23 23 23 23 22 23 24 23 21 21 21 20 20 22 23 23 23 23 25
4 3 3 4 6 6 6 5 4 4 4 4 4 4 4 3 3 5 6 6 7 8 10 13 14 15 15 14 12 10 8 6 5 6 9 12 13 16 19 19 18 17 16 14 13 14 15 18 20 19 20 23 22 19 19 22 23 24 25 27 27 26 25 23 22 22 21 23 24 24 23 23 22 21 22 21 19 19 19 18 18 20 22 22 22 21 22
7 4 2 3 4 6 6 5 6 6 5 5 5 4 4 3 3 5 7 9 11 12 13 13 12 12 11 10 7 6 6 7 8 9 10 10 11 15 19 19 17 15 13 10 8 10 13 15 17 17 17 19 19 18 18 20 22 23 25 26 26 25 24 23 21 19 19 20 22 23 23 22 21 20 20 20 18 18 18 18 17 17 19 21 21 20 19
10 6 5 5 5 7 7 6 7 7 5 5 5 2 3 3 4 9 11 12 13 11 10 10 8 7 7 7 7 7 7 7 7 8 9 9 12 16 18 17 15 13 11 7 6 9 13 13 13 14 15 16 17 17 17 19 21 22 24 25 25 25 24 21 19 18 18 19 20 20 20 21 20 19 19 19 18 17 18 18 18 17 17 18 19 20 20
12 8 5 5 2 5 8 7 9 9 8 6 4 3 4 5 11 14 13 13 12 9 8 7 5 3 5 7 6 6 7 6 6 8 10 14 17 18 15 12 10 10 8 6 7 12 16 16 15 16 17 17 17 15 14 16 20 23 24 24 23 23 22 21 19 18 18 18 18 18 18 19 21 20 20 20 19 18 18 19 18 17 17 17 17 19 20
10 7 8 10 9 3 6 10 10 9 9 7 3 2 7 15 16 14 12 12 12 11 11 11 8 2 4 6 5 5 7 8 7 7 12 17 19 18 16 13 11 10 9 8 9 12 14 14 14 16 17 17 17 18 18 17 20 22 22 21 21 20 20 20 19 19 19 18 18 17 17 17 19 19 19 19 17 16 16 17 17 15 15 16 17 17 18
7 5 7 8 8 6 1 8 9 10 14 13 6 4 6 13 14 12 11 10 8 8 10 12 11 6 4 6 6 5 5 8 9 5 13 18 19 17 14 13 14 13 12 11 11 12 12 11 10 11 12 13 14 17 20 19 19 19 19 19 19 19 20 20 20 19 19 18 18 17 16 16 16 17 17 17 16 15 14 14 13 12 13 16 17 16 16
5 3 6 8 6 7 4 4 10 12 14 14 10 8 9 12 13 10 10 10 8 6 5 7 8 7 7 8 7 5 3 7 9 9 15 16 14 11 8 8 10 12 14 13 13 12 12 11 10 10 10 9 9 12 14 15 17 18 17 17 18 19 20 20 20 19 19 19 18 17 16 15 15 16 16 17 17 16 15 15 14 13 12 13 14 15 16
6 2 6 9 7 6 8 3 7 11 10 10 12 12 13 14 12 9 7 8 9 7 4 4 5 5 5 5 5 3 4 8 13 16 16 14 12 11 7 7 9 13 15 15 13 12 12 11 11 10 9 8 7 7 9 13 16 16 13 14 18 20 19 19 20 20 19 20 19 18 15 14 15 17 16 16 17 17 17 17 17 13 10 10 12 15 16
7 4 4 6 6 3 7 7 1 8 10 9 10 11 11 13 14 11 8 7 8 9 8 5 2 1 1 1 1 1 2 8 16 20 20 18 17 16 13 11 11 12 13 13 13 12 12 12 13 14 13 11 9 9 9 12 15 13 8 10 16 19 18 18 20 21 20 20 19 17 13 10 12 15 15 14 14 16 17 16 15 12 9 9 10 11 11
7 4 1 3 5 5 2 7 3 4 7 8 10 12 13 15 15 12 10 9 8 7 7 5 2 1 5 7 7 7 8 12 17 19 18 16 16 16 15 14 13 12 12 13 13 13 14 15 15 15 13 11 10 11 12 12 12 10 8 10 15 18 17 16 17 19 19 17 16 14 10 7 7 11 11 10 11 13 14 13 10 10 10 10 10 9 9
6 5 2 3 6 6 5 7 2 7 12 14 15 15 15 14 12 9 8 8 8 6 6 6 6 7 9 11 14 16 17 17 18 17 13 9 8 10 12 13 14 13 13 13 13 13 13 13 12 12 11 11 11 12 12 10 7 6 9 13 16 16 15 14 14 15 16 16 14 12 10 8 8 8 8 8 9 11 11 9 8 9 9 9 10 10 11
9 9 9 6 3 7 8 5 10 16 17 15 13 11 11 11 9 7 5 5 7 8 10 10 10 10 12 13 16 19 20 18 16 15 14 12 11 12 13 13 12 12 12 11 11 11 11 10 9 9 9 9 11 12 10 6 3 4 11 15 15 13 12 13 12 13 15 15 14 12 9 7 5 4 5 6 7 7 7 8 8 9 9 9 10 10 9
8 6 7 10 12 6 9 15 17 15 12 9 6 6 8 8 9 9 7 7 7 10 14 16 16 17 19 19 17 19 20 19 15 13 15 16 15 14 13 12 11 11 11 9 8 8 8 7 7 7 8 8 10 9 5 4 4 7 13 15 13 11 12 13 12 13 14 14 12 10 9 7 5 5 6 8 8 7 7 8 9 10 10 11 12 11 10
7 4 6 11 9 5 15 16 12 8 7 6 5 5 6 7 8 8 9 9 9 11 16 20 21 22 23 23 19 19 21 19 14 10 11 13 14 14 14 13 13 12 11 9 8 7 5 5 6 7 7 7 7 7 7 8 9 11 14 14 12 11 11 12 12 13 14 13 11 10 9 8 6 6 8 10 10 9 8 8 9 10 11 11 11 11 10
8 7 9 6 6 12 14 10 5 5 6 6 5 3 2 3 3 4 7 11 12 11 13 17 20 21 22 23 23 22 21 19 15 12 11 12 13 14 14 14 12 11 10 8 7 6 6 7 8 8 9 10 11 12 12 13 13 13 13 13 13 13 13 13 13 13 13 13 12 10 7 5 4 4 5 7 9 10 9 9 9 10 10 10 10 9 10
9 11 11 5 6 12 11 7 6 7 8 8 5 4 4 3 4 6 8 9 8 8 11 16 20 20 20 20 21 21 19 18 17 16 14 13 13 13 12 11 11 10 10 10 9 9 10 11 12 13 14 14 14 13 13 13 14 14 13 12 12 12 12 12 11 11 11 11 10 7 4 4 5 5 5 6 8 9 10 10 10 9 10 10 9 8 9
13 13 11 2 11 17 15 12 11 10 9 8 6 5 5 5 5 6 8 10 8 5 11 15 16 17 18 19 19 18 17 17 16 15 13 12 13 13 12 11 11 11 12 13 13 12 12 11 12 13 14 13 11 11 11 12 12 13 13 12 12 11 11 9 8 8 9 9 8 5 4 5 7 7 7 7 8 8 9 10 10 10 10 10 9 8 7
19 18 15 14 17 17 15 14 13 9 7 8 7 5 3 3 3 4 9 15 16 10 13 15 13 14 17 18 17 16 16 16 16 15 13 13 13 13 11 10 9 9 10 11 11 10 9 8 9 11 11 9 8 9 10 9 8 8 9 10 10 9 8 6 5 6 7 6 5 5 5 6 7 8 7 7 7 7 8 9 10 10 9 8 8 8 7
Wind_Direction
291 293 290 290 282 254 215 204 218 228 242 256 254 249 269 277 267 239 237 333 317 288 287 301 321 315 309 3 72 129 143 152 155 150 152 155 157 159 158 158 162 162 162 163 163 164 164 164 166 169 172 175 175 178 180 178 176 175 174 172 170 170 171 171 171 171 171 171 173 173 171 169 171 177 181 180 181 181 179 179 180 180 180 181 181 181 183
311 320 336 321 308 274 230 209 212 224 236 250 253 249 255 252 251 235 158 270 279 261 268 297 321 319 308 335 50 63 92 116 137 147 153 156 156 160 160 159 162 164 163 163 162 161 163 165 168 171 172 174 176 177 179 178 176 174 172 171 170 170 171 171 170 170 169 169 171 172 171 170 173 178 181 181 181 180 179 179 179 179 181 182 182 182 183
316 332 357 350 345 325 272 229 213 222 232 247 252 246 251 250 253 261 235 245 267 258 272 304 321 324 310 324 54 61 75 90 109 134 146 152 155 159 159 157 161 162 163 164 160 160 168 171 172 173 172 173 176 178 178 177 175 173 170 169 170 170 170 170 169 168 168 169 171 172 171 172 177 181 181 181 180 179 179 180 179 179 181 183 183 184 185
305 328 355 334 318 317 290 252 227 226 228 235 236 230 242 243 198 221 238 240 256 265 293 307 310 308 299 316 40 45 73 88 99 127 142 149 151 150 150 152 157 161 163 164 164 166 170 171 171 172 171 171 175 178 178 176 173 171 169 169 169 169 168 168 168 168 168 170 170 171 172 174 179 182 181 181 180 179 179 179 178 179 183 185 185 186 189
277 310 331 311 298 302 271 246 228 231 232 229 231 229 239 241 197 202 222 210 214 242 263 287 293 297 300 337 23 2 104 97 97 118 135 148 152 152 154 158 162 166 167 169 170 170 167 167 170 172 172 173 175 177 176 174 171 170 170 170 169 168 167 166 167 168 169 170 170 171 174 177 180 181 182 181 180 179 179 179 178 180 184 185 185 189 191
282 307 317 315 310 246 249 252 229 231 236 235 238 233 227 230 211 169 155 152 175 214 222 246 276 283 280 277 249 221 136 121 131 134 128 144 159 161 162 163 166 169 171 172 169 166 165 166 169 171 173 174 175 175 174 172 171 170 170 170 169 167 166 167 168 169 170 171 171 173 175 178 180 181 181 181 180 180 180 179 179 181 185 186 186 190 191
285 315 348 10 298 241 273 298 289 252 242 239 248 256 240 227 200 157 151 162 167 203 220 214 230 250 251 243 243 227 146 140 159 160 137 126 158 177 167 163 166 168 168 169 166 165 165 165 166 168 171 173 174 174 173 171 171 170 170 170 168 166 167 168 169 170 171 172 173 175 176 178 180 182 181 180 180 180 180 180 181 183 186 186 186 189 190
294 342 9 333 260 281 295 301 320 347 335 319 322 304 271 239 187 168 176 175 177 202 221 217 218 231 240 245 249 244 187 154 159 165 153 147 177 207 185 163 164 166 166 169 167 164 163 162 163 165 167 170 172 172 172 171 171 171 170 168 167 166 166 168 170 171 171 172 173 175 177 178 180 182 182 181 180 181 181 181 182 184 186 187 188 189 189
13 354 288 262 288 307 304 298 343 25 1 310 313 288 269 253 194 178 176 173 187 204 218 232 236 238 278 299 283 274 254 198 177 177 171 166 178 194 191 174 169 166 165 165 162 159 159 160 162 162 163 166 169 169 170 171 171 172 169 166 167 167 167 167 169 171 171 172 174 175 176 179 182 183 183 181 180 181 181 181 182 184 186 187 188 190 189
114 91 286 303 331 307 288 295 308 314 296 286 276 246 272 314 359 339 236 190 199 206 218 245 261 306 331 299 279 286 275 228 199 186 179 176 177 183 185 179 166 159 159 158 155 155 157 159 161 160 160 164 165 165 169 171 170 170 169 167 166 166 167 168 169 169 170 172 175 176 178 182 184 185 183 182 181 182 182 182 183 185 187 188 189 191 190
171 116 285 294 296 276 277 295 306 319 323 313 311 269 277 335 4 352 332 294 244 219 223 260 275 284 284 269 262 266 238 136 144 155 166 174 174 175 178 173 160 153 153 152 152 154 155 157 161 161 161 162 163 163 166 168 168 169 169 168 166 166 168 169 170 171 172 174 176 179 182 185 187 186 184 182 182 183 184 184 184 185 189 190 189 190 191
229 161 231 254 243 264 284 305 318 321 322 334 11 107 261 316 345 338 336 333 301 248 219 242 259 239 230 235 240 232 175 97 96 124 144 154 150 159 171 166 156 152 152 150 151 154 155 158 161 161 160 161 161 161 163 165 167 169 169 167 166 167 168 170 172 175 174 175 180 183 185 186 187 186 185 182 181 182 182 184 186 187 190 191 189 187 190
267 205 228 255 253 264 285 301 308 312 325 359 42 216 242 303 323 318 330 338 320 293 226 218 233 231 219 209 200 186 144 109 117 117 107 109 103 104 134 150 149 149 152 153 153 155 156 157 160 160 159 159 160 160 161 164 167 167 166 166 166 166 168 171 173 174 175 179 186 188 187 186 186 186 185 182 180 180 182 184 186 187 188 188 186 184 188
284 234 234 264 276 281 290 291 295 312 347 334 244 251 275 301 304 314 333 339 330 327 293 238 242 230 211 198 185 168 153 159 163 129 114 116 110 108 123 141 145 146 149 151 150 151 154 155 159 161 158 155 158 159 160 163 165 163 162 164 165 166 168 172 173 174 178 185 189 188 186 185 183 183 185 184 182 181 182 183 183 183 182 182 181 181 185
287 276 275 284 285 288 296 302 314 358 103 223 275 308 320 318 316 324 338 339 323 326 353 348 310 242 188 173 176 171 166 168 154 128 130 137 135 129 131 140 145 144 143 145 146 149 153 154 158 160 157 155 157 161 163 164 163 162 161 162 165 166 168 171 173 175 180 185 185 184 185 185 183 182 183 183 183 182 182 181 178 177 177 177 177 177 179
35 292 271 283 301 300 306 313 315 321 305 296 313 326 325 328 329 328 328 324 307 304 19 26 1 341 302 238 181 163 158 151 133 127 138 143 144 144 142 144 146 143 140 142 145 149 153 155 159 161 159 157 159 162 165 164 161 161 162 162 164 166 168 168 170 173 178 182 183 183 185 185 183 181 180 179 180 182 181 179 175 173 174 174 174 176 178
198 246 261 283 297 296 314 332 303 291 302 300 297 324 339 332 326 322 317 305 299 306 13 58 39 19 357 339 333 249 166 157 147 146 150 150 151 147 142 145 147 144 143 144 145 149 155 158 161 162 161 160 160 162 164 164 163 162 163 163 163 163 164 166 169 173 177 180 182 183 184 185 183 179 178 177 177 179 179 178 175 172 172 175 177 180 184
218 250 255 263 277 288 321 336 310 298 303 295 303 350 5 344 327 314 300 287 290 311 8 61 66 43 19 4 358 359 359 1 169 162 156 154 153 147 144 147 147 143 143 145 145 149 156 159 159 161 161 160 159 161 163 166 168 166 164 165 163 161 163 169 173 176 177 177 180 182 183 184 184 181 180 179 178 178 178 178 177 176 174 177 182 186 192
229 257 251 258 281 287 307 328 315 307 301 289 299 357 24 355 317 288 277 281 299 328 15 55 71 54 41 33 22 17 21 12 348 322 168 153 153 151 148 147 144 141 141 145 148 150 154 158 157 158 160 160 159 161 163 164 168 169 165 164 163 162 166 171 173 175 176 176 177 179 179 181 181 181 181 180 179 178 178 177 177 177 178 181 185 190 196
232 245 260 279 289 272 246 243 308 301 302 309 320 345 37 342 282 268 272 307 2 15 18 29 56 57 47 44 38 27 40 37 8 346 354 35 116 153 149 144 141 140 140 143 148 150 149 151 153 154 157 159 159 162 164 162 164 167 165 163 164 165 169 171 170 173 177 177 176 177 178 181 182 181 182 183 183 184 184 183 182 181 183 187 191 194 198
269 260 276 294 307 296 286 324 285 287 306 326 321 304 216 265 271 280 322 5 27 44 35 24 46 55 43 46 52 36 32 57 39 3 357 5 4 12 107 141 138 135 138 142 144 148 148 147 149 151 154 157 158 162 165 163 160 160 160 160 163 166 167 167 168 171 175 176 177 178 180 182 185 187 188 190 191 192 192 192 193 192 192 194 197 201 202
292 266 263 274 306 297 292 297 291 294 314 319 300 274 219 244 274 313 356 12 29 50 52 45 57 60 39 41 60 53 36 58 62 31 8 1 5 6 351 309 144 132 135 143 141 142 146 146 145 146 149 154 157 158 162 162 157 154 153 153 156 160 162 163 166 170 171 173 176 179 180 181 183 186 191 195 196 195 195 198 202 203 205 208 209 209 208
279 274 260 227 188 253 269 270 279 294 315 301 292 303 324 290 293 322 347 15 41 51 53 52 62 69 51 43 64 66 51 50 69 73 51 8 334 8 4 333 183 141 136 140 137 135 139 142 142 142 142 145 149 152 157 160 158 154 153 152 154 158 162 165 169 170 170 171 174 176 178 180 179 179 183 191 196 200 203 204 205 208 214 219 220 217 216
271 274 255 212 199 244 264 269 276 299 351 312 298 312 337 327 314 317 343 25 47 55 58 54 61 77 79 72 79 81 79 56 49 75 75 34 328 359 34 7 296 160 141 140 140 138 140 141 142 142 142 142 145 148 153 157 158 158 157 158 158 161 164 168 171 171 171 172 173 174 175 177 178 177 177 180 187 198 206 208 209 210 213 217 219 221 223
245 255 239 212 215 248 265 271 275 301 15 304 290 296 319 326 332 344 10 36 42 47 60 59 62 83 106 141 107 93 97 81 56 57 73 61 9 12 46 43 9 157 139 141 142 140 142 143 141 143 144 142 144 148 153 157 158 158 159 160 159 160 163 167 169 171 172 174 176 176 176 177 178 179 180 181 184 188 193 199 204 208 210 214 218 220 221
221 223 249 280 274 268 271 270 272 273 249 256 270 294 316 322 333 353 22 44 39 36 52 64 81 89 83 87 85 80 76 75 66 56 69 73 44 26 51 62 46 206 153 144 140 139 142 141 137 138 140 141 145 151 155 159 159 158 160 161 162 165 169 170 170 171 174 177 178 178 179 180 181 182 185 188 188 182 177 181 191 199 205 210 217 222 222
196 171 186 313 305 286 280 281 289 296 292 286 296 317 325 321 328 347 17 40 40 34 36 42 60 89 89 78 80 82 87 92 87 73 76 83 73 63 72 80 168 212 165 135 129 134 139 137 134 134 137 145 151 155 159 161 160 159 161 164 167 170 173 173 171 172 174 176 178 178 179 181 183 185 188 190 188 182 178 180 186 192 197 204 212 218 220
173 177 190 216 251 260 271 295 306 309 312 309 307 316 337 334 330 347 16 32 33 28 26 31 36 44 63 90 100 98 94 97 99 93 91 101 109 106 99 100 163 165 131 117 120 129 132 132 132 132 137 146 155 162 167 167 164 162 165 168 168 168 169 170 171 172 173 174 177 179 181 184 186 188 190 191 191 191 191 191 191 191 193 199 203 205 206
177 209 216 207 239 264 289 309 312 310 305 302 304 312 329 68 329 340 2 28 40 34 23 24 33 38 47 67 90 97 90 83 82 85 92 101 111 121 126 130 125 112 109 111 120 127 128 129 130 132 140 150 158 163 167 166 163 165 169 170 168 166 167 171 174 175 174 174 175 179 183 185 187 188 187 188 191 194 195 195 195 192 190 192 194 193 194
195 213 205 222 258 283 316 312 301 295 294 306 325 329 333 84 89 351 343 22 60 57 42 31 35 43 46 50 65 91 105 104 99 99 99 101 107 117 126 127 116 99 101 112 122 128 129 130 133 139 148 156 159 160 160 159 160 163 166 168 168 169 170 171 173 175 175 174 175 178 182 184 188 189 186 184 188 193 196 197 197 195 194 195 195 195 194
222 216 194 213 255 254 259 279 277 271 284 320 10 351 345 65 93 55 12 30 48 54 61 60 51 45 44 49 66 93 110 116 115 114 113 112 114 117 121 123 120 115 117 123 126 129 131 133 137 142 148 153 156 157 156 155 157 160 162 164 168 171 172 171 171 173 176 175 175 178 181 184 187 189 188 188 192 195 197 196 196 196 197 199 202 204 204
239 245 212 212 246 250 246 264 285 303 321 24 56 20 349 49 77 49 4 3 29 43 55 64 65 62 59 56 64 90 114 125 128 129 127 123 121 123 127 128 129 133 137 135 134 135 136 136 137 141 146 152 155 155 155 155 156 157 160 162 163 166 170 172 171 173 176 177 177 179 180 183 185 185 185 188 192 193 193 194 195 197 198 200 207 211 212
224 244 229 212 223 239 238 241 340 351 1 73 89 36 350 6 46 43 342 352 39 47 45 44 42 44 54 56 51 65 98 116 121 127 133 134 131 132 136 138 138 140 141 140 141 144 146 144 142 145 153 157 155 154 157 159 157 157 161 162 162 165 169 171 172 172 173 175 177 179 181 184 187 189 188 189 190 190 190 192 195 198 199 203 212 217 217
218 205 201 190 180 191 208 194 131 37 32 73 91 49 8 356 14 79 83 65 54 46 41 45 46 46 51 54 47 45 62 82 88 99 112 119 125 132 137 139 140 142 143 142 145 151 155 154 152 153 160 161 156 154 159 161 159 160 164 164 164 165 167 169 171 172 173 176 179 181 182 185 189 192 193 192 192 193 194 196 199 202 202 204 212 219 222
283 219 177 157 152 158 171 170 142 105 80 75 68 37 14 15 59 73 68 64 63 60 54 52 52 53 55 53 45 39 45 52 54 64 74 82 100 121 129 128 127 131 135 138 146 157 162 160 158 159 164 165 162 159 161 162 162 163 165 165 164 165 166 169 173 175 177 179 182 184 186 188 191 193 194 194 195 198 201 202 204 206 206 205 207 214 220
314 271 222 190 168 153 142 128 122 122 112 96 82 47 354 343 46 64 65 63 60 59 59 57 55 56 58 57 54 49 45 45 53 65 68 69 86 113 123 120 116 121 124 118 130 154 161 161 162 164 165 167 168 169 167 165 165 166 166 164 164 165 165 168 172 176 177 179 183 187 189 191 192 194 196 197 199 203 205 206 207 209 208 207 206 210 217
312 276 241 226 179 141 126 119 127 131 124 104 98 118 231 213 101 76 71 64 57 55 58 60 61 69 75 73 67 59 54 55 59 63 69 74 83 98 111 114 114 120 119 100 106 138 142 145 158 167 166 165 168 168 166 168 171 172 169 166 164 164 165 165 168 172 175 178 183 187 189 190 192 194 196 198 200 204 207 210 211 211 212 212 212 216 221
316 314 313 303 265 134 126 131 142 143 136 129 145 198 193 122 90 76 65 52 44 47 49 39 34 89 106 92 76 56 47 49 54 62 78 86 84 83 90 100 109 118 119 113 123 131 124 120 129 144 149 150 148 142 148 169 178 174 168 166 167 168 169 168 169 173 177 180 183 185 186 188 191 194 195 199 203 207 209 211 212 212 213 216 219 222 226
318 340 2 347 331 351 105 116 128 134 124 120 139 159 110 98 90 83 73 53 36 33 31 18 4 24 110 101 84 60 38 23 20 58 93 99 93 86 80 78 84 103 121 123 123 127 126 124 128 133 136 138 135 127 129 150 167 168 164 165 167 169 171 172 174 178 180 181 184 185 185 186 189 190 191 195 199 204 205 205 207 211 215 218 221 226 230
320 1 38 20 337 315 80 110 111 107 102 97 71 25 91 109 109 104 97 83 52 32 27 17 9 16 66 73 64 67 47 10 4 57 110 108 97 91 85 74 75 96 119 121 112 116 127 136 143 143 139 140 141 136 132 135 147 157 161 163 163 165 169 172 173 174 175 176 178 181 184 188 192 194 197 201 204 205 203 200 203 211 215 213 215 222 229
314 4 60 56 14 323 310 116 113 109 110 111 97 60 72 103 113 111 108 108 95 65 36 21 21 36 65 72 68 67 40 19 35 94 122 115 98 89 82 63 69 92 113 119 116 121 129 134 139 142 141 141 150 154 150 148 150 154 160 166 169 168 170 174 175 175 176 178 179 181 186 193 197 199 204 208 208 207 205 202 202 205 209 210 215 222 229
309 340 65 71 55 352 324 333 114 115 120 125 114 92 84 92 100 101 110 120 116 102 77 56 52 58 74 87 91 84 50 52 73 93 106 109 108 110 101 73 73 92 107 114 115 119 126 130 131 132 133 136 146 158 167 171 169 165 167 177 180 177 176 178 181 182 182 182 181 181 184 190 196 198 201 205 206 206 204 201 198 199 208 223 229 230 232
320 338 54 83 93 48 327 317 56 113 118 122 120 108 92 84 82 79 74 87 106 111 105 95 77 344 2 62 148 171 89 82 87 88 84 83 92 100 100 93 92 101 113 120 118 114 117 124 129 133 136 140 145 150 157 166 171 174 177 184 184 183 181 181 182 182 181 178 176 177 178 184 197 202 202 202 204 203 198 194 193 196 207 218 220 220 222
329 339 355 147 131 115 303 292 290 104 102 101 106 106 94 80 75 73 63 57 69 99 119 132 163 22 52 69 76 71 74 90 96 92 84 78 76 79 87 100 104 106 114 122 120 117 118 120 122 128 132 133 140 149 153 154 162 171 171 163 166 172 173 169 168 173 174 170 169 172 169 162 178 196 199 191 184 183 183 185 192 200 203 209 220 231 231
350 8 28 152 144 156 227 254 222 98 85 77 81 91 93 83 75 74 70 58 46 50 80 101 89 57 56 76 88 85 87 101 110 107 99 92 79 76 89 104 107 104 108 114 115 115 119 120 119 124 129 128 134 147 152 150 158 182 173 155 149 154 159 157 157 164 169 167 164 164 161 146 145 166 179 174 169 174 182 193 205 210 210 217 234 244 242
349 16 20 360 282 210 198 161 98 88 82 74 69 74 83 88 92 96 88 67 52 50 61 74 75 63 62 80 98 99 94 95 103 109 109 108 107 106 107 108 104 101 102 105 107 109 114 120 125 129 133 138 146 153 150 133 121 169 165 154 144 145 154 158 156 159 166 168 166 166 168 163 153 160 174 174 175 184 196 205 211 216 222 230 237 237 236
335 17 10 320 286 234 132 104 91 84 81 77 65 50 55 78 105 121 117 97 77 68 65 66 67 67 65 70 90 110 107 93 85 94 104 105 107 114 116 111 104 99 93 90 93 101 109 121 136 141 142 150 158 159 140 84 84 134 150 150 144 141 148 154 153 154 159 164 167 169 170 171 173 191 208 214 214 215 217 217 217 221 230 237 237 232 232
300 302 296 275 252 145 100 93 92 85 78 79 77 63 66 85 104 117 123 119 103 84 77 76 76 74 69 67 79 104 112 104 95 100 109 109 111 116 114 108 102 98 91 87 93 104 111 122 137 145 143 138 131 115 90 82 97 120 132 136 134 132 137 146 152 152 151 153 157 160 161 163 169 187 205 216 220 219 215 213 215 219 228 235 236 232 235
292 315 317 281 170 121 101 95 99 96 99 106 95 64 87 137 123 98 112 122 118 105 94 91 88 84 79 78 82 90 97 100 106 117 123 119 117 116 112 106 99 93 90 91 99 110 118 119 116 111 105 100 97 94 92 92 96 102 109 115 119 120 126 136 144 145 145 147 150 149 150 162 182 194 198 203 207 206 203 205 211 219 225 232 239 241 243
343 347 327 296 132 108 95 90 88 91 106 120 104 48 36 57 58 58 75 93 110 123 114 101 95 93 92 91 92 93 93 96 105 112 113 110 110 112 113 110 102 94 91 93 98 103 107 104 96 90 91 93 94 93 93 91 90 91 96 102 107 109 113 121 131 139 143 146 146 145 157 191 202 199 195 196 198 199 202 206 213 219 225 233 242 248 246
8 350 324 333 105 101 102 108 108 106 111 110 86 58 54 51 41 47 51 42 39 108 130 116 104 104 106 103 100 98 94 93 100 109 111 112 115 119 122 124 121 111 102 100 102 106 107 98 86 85 90 92 91 93 97 96 91 90 93 96 101 104 104 106 119 137 144 142 140 146 180 202 201 198 198 198 199 203 210 215 217 220 226 236 245 250 250
24 15 18 49 69 73 74 72 66 71 103 112 91 72 68 30 6 42 53 38 33 65 120 129 125 126 127 123 117 110 102 97 101 109 115 118 122 127 132 139 144 143 134 122 116 116 120 114 97 88 89 93 98 104 107 103 95 92 95 98 100 100 96 93 111 136 145 145 150 164 183 195 197 197 198 199 202 207 216 222 223 224 227 232 236 239 240